Overview Statistics Trail Chart Weather Telemetry Raw packets
 

This is the latest recevied weather packets stored in our database for station/object TONGUE. If no packets are shown the sender has not sent any weather packets the latest 10 day(s).

<< 1 2 3 4 5 6 >>
Time Temp. Humidity Pressure Rain* Wind** Luminosity Snow
1788546603 16.11° C 78% 0 hPa - - - -
1788546003 16.11° C 79% 0 hPa - - - -
1788545403 16.11° C 78% 0 hPa - - - -
1788544804 16.11° C 82% 0 hPa - - - -
1788544203 16.11° C 80% 0 hPa - - - -
1788543602 15.56° C 83% 0 hPa - - - -
1788543003 15.56° C 86% 0 hPa - - - -
1788542403 15° C 86% 0 hPa - - - -
1788541803 15° C 89% 0 hPa - - - -
1788541203 15° C 88% 0 hPa - - - -
1788540608 16.11° C 88% 0 hPa - - - -
1788540002 15° C 89% 0 hPa - - - -
1788539403 15° C 92% 0 hPa - - - -
1788538803 14.44° C 95% 0 hPa - - - -
1788538203 14.44° C 96% 0 hPa - - - -
1788537603 13.89° C 96% 0 hPa - - - -
1788537003 14.44° C 91% 0 hPa - - - -
1788536403 15° C 91% 0 hPa - - - -
1788535803 15° C 94% 0 hPa - - - -
1788535221 13.89° C 100% 0 hPa - - - -
1788534602 13.33° C 100% 0 hPa - - - -
1788534003 11.67° C 100% 0 hPa - - - -
1788533403 11.11° C 99% 0 hPa - - - -
1788532803 10.56° C 100% 0 hPa - - - -
1788532203 10° C 100% 0 hPa - - - -

* Rain since midnight (hover to see other rain measurements)
** Current wind speed in m/s (hover to see current wind gust speed)